When you browse on this site, cookies collect data to enhance your experience and personalize the content and advertising you see.
Visit our Privacy Policy to learn more. By continuing to use the site, you agree to this use of cookies and data.
  • In Hungary
  • List of Countries
  • For 7 days
  • Water Temperature
  • Satellite Maps
  • Weather Map
  • News
  • Weather Widgets
  • user-avatar
    Login

    Hourly Weather Pasturka

    Today, 23 May, Thursday

    Time Temperature Precipitation Wind Pressure Humidity
    00:00 +11°C° 0.1 mm 3 mps 739 mmHg 97%
    01:00 +11°C° 0 mm 3 mps 739 mmHg 97%
    02:00 +11°C° 0.1 mm 4 mps 740 mmHg 97%
    03:00 +12°C° 0.1 mm 4 mps 740 mmHg 97%
    04:00 +12°C° 0.1 mm 4 mps 740 mmHg 96%
    05:00 +13°C° 0.3 mm 4 mps 740 mmHg 95%
    06:00 +13°C° 0.3 mm 4 mps 740 mmHg 94%
    07:00 +14°C° 0.3 mm 4 mps 741 mmHg 93%
    08:00 +15°C° 0.7 mm 4 mps 741 mmHg 91%
    09:00 +15°C° 0.7 mm 4 mps 741 mmHg 89%
    10:00 +17°C° 0.7 mm 4 mps 741 mmHg 88%
    11:00 +16°C° 1.4 mm 5 mps 742 mmHg 88%
    12:00 +16°C° 1.4 mm 6 mps 742 mmHg 88%
    13:00 +16°C° 1.4 mm 7 mps 742 mmHg 89%
    14:00 +15°C° 1.3 mm 7 mps 742 mmHg 90%
    15:00 +15°C° 1.3 mm 7 mps 742 mmHg 91%
    16:00 +14°C° 1.3 mm 7 mps 742 mmHg 93%
    17:00 +14°C° 0.6 mm 7 mps 742 mmHg 93%
    18:00 +13°C° 0.6 mm 6 mps 742 mmHg 93%
    19:00 +13°C° 0.6 mm 6 mps 743 mmHg 94%
    20:00 +13°C° 0.3 mm 6 mps 743 mmHg 94%
    21:00 +13°C° 0.3 mm 5 mps 743 mmHg 95%
    22:00 +13°C° 0.3 mm 5 mps 743 mmHg 95%
    23:00 +13°C° 0.2 mm 5 mps 743 mmHg 95%

    Tomorrow, 24 May, Friday

    Time Temperature Precipitation Wind Pressure Humidity
    00:00 +13°C° 0.2 mm 5 mps 743 mmHg 95%
    01:00 +13°C° 0.2 mm 5 mps 743 mmHg 95%
    02:00 +13°C° 0.1 mm 5 mps 743 mmHg 95%
    03:00 +12°C° 0.1 mm 4 mps 743 mmHg 95%
    04:00 +12°C° 0.1 mm 4 mps 743 mmHg 95%
    05:00 +12°C° 0.1 mm 4 mps 743 mmHg 93%
    06:00 +12°C° 0.1 mm 4 mps 744 mmHg 91%
    07:00 +12°C° 0.1 mm 3 mps 744 mmHg 89%
    08:00 +13°C° 0 mm 3 mps 744 mmHg 84%
    09:00 +14°C° 0 mm 3 mps 744 mmHg 79%
    10:00 +17°C° 0 mm 3 mps 744 mmHg 73%
    11:00 +18°C° 0 mm 3 mps 743 mmHg 70%
    12:00 +19°C° 0 mm 3 mps 743 mmHg 67%
    13:00 +20°C° 0 mm 3 mps 743 mmHg 64%
    14:00 +20°C° 0 mm 3 mps 743 mmHg 64%
    15:00 +20°C° 0 mm 3 mps 743 mmHg 65%
    16:00 +20°C° 0 mm 4 mps 742 mmHg 65%
    17:00 +19°C° 0 mm 3 mps 742 mmHg 70%
    18:00 +18°C° 0 mm 3 mps 742 mmHg 76%
    19:00 +16°C° 0 mm 3 mps 742 mmHg 81%
    20:00 +14°C° 0 mm 3 mps 742 mmHg 82%
    21:00 +14°C° 0 mm 2 mps 742 mmHg 84%
    22:00 +13°C° 0 mm 2 mps 742 mmHg 85%
    23:00 +13°C° 0 mm 2 mps 742 mmHg 86%

    Day after tomorrow, 25 May, Saturday

    Time Temperature Precipitation Wind Pressure Humidity
    00:00 +12°C° 0 mm 2 mps 742 mmHg 87%
    01:00 +12°C° 0 mm 2 mps 743 mmHg 88%
    02:00 +12°C° 0 mm 2 mps 742 mmHg 88%
    03:00 +10°C° 0 mm 2 mps 742 mmHg 88%
    04:00 +10°C° 0 mm 2 mps 742 mmHg 88%
    05:00 +13°C° 0 mm 2 mps 743 mmHg 84%
    06:00 +14°C° 0 mm 2 mps 743 mmHg 79%
    07:00 +16°C° 0 mm 2 mps 743 mmHg 75%
    08:00 +17°C° 0 mm 3 mps 743 mmHg 69%
    09:00 +19°C° 0 mm 3 mps 743 mmHg 63%
    10:00 +20°C° 0 mm 3 mps 743 mmHg 57%
    11:00 +21°C° 0 mm 3 mps 742 mmHg 56%
    12:00 +22°C° 0 mm 3 mps 742 mmHg 55%
    13:00 +22°C° 0 mm 3 mps 742 mmHg 54%
    14:00 +22°C° 0.2 mm 4 mps 742 mmHg 58%
    15:00 +22°C° 0.2 mm 4 mps 742 mmHg 63%
    16:00 +21°C° 0.2 mm 4 mps 741 mmHg 67%
    17:00 +20°C° 0.1 mm 4 mps 741 mmHg 73%
    18:00 +19°C° 0.1 mm 3 mps 742 mmHg 78%
    19:00 +17°C° 0.1 mm 2 mps 742 mmHg 83%
    20:00 +16°C° 0 mm 2 mps 742 mmHg 84%
    21:00 +15°C° 0 mm 2 mps 742 mmHg 86%
    22:00 +14°C° 0 mm 2 mps 742 mmHg 87%
    23:00 +13°C° 0 mm 1 mps 742 mmHg 87%

    26 May, Sunday

    Time Temperature Precipitation Wind Pressure Humidity
    00:00 +13°C° 0 mm 1 mps 742 mmHg 87%
    01:00 +12°C° 0 mm 1 mps 742 mmHg 87%
    02:00 +12°C° 0 mm 1 mps 742 mmHg 87%
    03:00 +12°C° 0 mm 1 mps 742 mmHg 88%
    04:00 +12°C° 0 mm 1 mps 742 mmHg 89%
    05:00 +13°C° 0 mm 1 mps 742 mmHg 86%
    06:00 +15°C° 0 mm 2 mps 742 mmHg 83%
    07:00 +17°C° 0 mm 2 mps 742 mmHg 80%
    08:00 +18°C° 0 mm 3 mps 742 mmHg 76%
    09:00 +19°C° 0 mm 3 mps 742 mmHg 72%
    10:00 +20°C° 0 mm 4 mps 742 mmHg 68%
    11:00 +21°C° 0.1 mm 4 mps 742 mmHg 66%
    12:00 +21°C° 0.1 mm 4 mps 741 mmHg 64%
    13:00 +22°C° 0.1 mm 4 mps 741 mmHg 62%
    14:00 +21°C° 0.3 mm 4 mps 741 mmHg 63%
    15:00 +21°C° 0.3 mm 4 mps 741 mmHg 64%
    16:00 +21°C° 0.3 mm 4 mps 741 mmHg 65%
    17:00 +20°C° 0.1 mm 4 mps 741 mmHg 70%
    18:00 +18°C° 0.1 mm 3 mps 741 mmHg 74%
    19:00 +17°C° 0.1 mm 2 mps 741 mmHg 78%
    20:00 +15°C° 0 mm 2 mps 741 mmHg 80%
    21:00 +14°C° 0 mm 1 mps 742 mmHg 83%
    22:00 +13°C° 0 mm 1 mps 742 mmHg 85%
    23:00 +13°C° 0 mm 1 mps 742 mmHg 86%

    27 May, Monday

    Time Temperature Precipitation Wind Pressure Humidity
    00:00 +12°C° 0 mm 1 mps 742 mmHg 87%
    01:00 +12°C° 0 mm 1 mps 742 mmHg 89%
    02:00 +12°C° 0 mm 1 mps 742 mmHg 88%
    03:00 +11°C° 0 mm 1 mps 742 mmHg 88%
    04:00 +11°C° 0 mm 1 mps 742 mmHg 88%
    05:00 +13°C° 0 mm 1 mps 742 mmHg 84%
    06:00 +15°C° 0 mm 2 mps 742 mmHg 80%
    07:00 +17°C° 0 mm 2 mps 742 mmHg 77%
    08:00 +18°C° 0 mm 3 mps 742 mmHg 73%
    09:00 +20°C° 0 mm 3 mps 741 mmHg 70%
    10:00 +21°C° 0 mm 3 mps 741 mmHg 67%
    11:00 +22°C° 0 mm 3 mps 741 mmHg 67%
    12:00 +22°C° 0 mm 3 mps 741 mmHg 68%
    13:00 +22°C° 0 mm 3 mps 740 mmHg 68%
    14:00 +22°C° 0.2 mm 3 mps 740 mmHg 74%
    15:00 +21°C° 0.2 mm 2 mps 739 mmHg 80%
    16:00 +20°C° 0.2 mm 2 mps 739 mmHg 86%
    17:00 +20°C° 0.1 mm 2 mps 739 mmHg 87%
    18:00 +19°C° 0.1 mm 2 mps 738 mmHg 88%
    19:00 +18°C° 0.1 mm 2 mps 738 mmHg 89%
    20:00 +18°C° 0.7 mm 2 mps 738 mmHg 91%
    21:00 +17°C° 0.7 mm 2 mps 737 mmHg 93%
    22:00 +17°C° 0.7 mm 2 mps 737 mmHg 96%
    23:00 +17°C° 1.7 mm 2 mps 737 mmHg 96%

    28 May, Tuesday

    Time Temperature Precipitation Wind Pressure Humidity
    00:00 +17°C° 1.7 mm 2 mps 736 mmHg 97%
    01:00 +17°C° 1.7 mm 2 mps 736 mmHg 97%
    02:00 +16°C° 0.2 mm 2 mps 735 mmHg 97%
    03:00 +16°C° 0.2 mm 2 mps 735 mmHg 97%
    04:00 +16°C° 0.2 mm 2 mps 735 mmHg 97%
    05:00 +17°C° 0 mm 2 mps 735 mmHg 93%
    06:00 +18°C° 0 mm 2 mps 735 mmHg 89%
    07:00 +19°C° 0 mm 2 mps 735 mmHg 85%
    08:00 +20°C° 0.7 mm 3 mps 735 mmHg 81%
    09:00 +21°C° 0.7 mm 3 mps 735 mmHg 78%
    10:00 +21°C° 0.7 mm 3 mps 735 mmHg 74%
    11:00 +21°C° 1.9 mm 3 mps 735 mmHg 75%
    12:00 +21°C° 1.9 mm 3 mps 735 mmHg 76%
    13:00 +22°C° 1.9 mm 3 mps 735 mmHg 76%
    14:00 +22°C° 0.7 mm 3 mps 735 mmHg 75%
    15:00 +22°C° 0.7 mm 3 mps 735 mmHg 74%
    16:00 +22°C° 0.7 mm 3 mps 735 mmHg 73%
    17:00 +21°C° 0.3 mm 2 mps 735 mmHg 77%
    18:00 +20°C° 0.3 mm 2 mps 735 mmHg 81%
    19:00 +19°C° 0.3 mm 1 mps 735 mmHg 85%
    20:00 +19°C° 0 mm 1 mps 735 mmHg 87%
    21:00 +18°C° 0 mm 1 mps 735 mmHg 88%
    22:00 +16°C° 0 mm 1 mps 736 mmHg 90%
    23:00 +15°C° 0 mm 1 mps 736 mmHg 90%
    Show more